Terminal Aerodrome Forecast
Issued by NWS Amarillo, TX

Home | Current Version | Previous Version | Text Only | Print | Product List | Glossary On
Versions: 1 2 3 4 5 6 7 8 9 10 11 12 13 14 15
043
FTUS44 KAMA 262343
TAFAMA
TAF
KAMA 262343Z 2700/2724 18013KT P6SM VCTS SCT070CB SCT120 BKN300
     FM270300 20011KT P6SM SCT100 BKN300 PROB30 2709/2712 6SM -TSRA
      OVC040CB
     FM271200 23010KT P6SM BKN120 OVC300
     FM271700 07010KT P6SM SCT060 BKN300=

USA.gov is the U.S. government's official web portal to all federal, state and local government web resources and services.